Regional Weather Roundup
Issued by NWS

Home | Current Version | Previous Version | Graphics & Text | Print | Product List | Glossary On
Versions: 1 2 3 4 5 6 7 8 9 10 11 12 13 14 15 16 17 18 19 20 21 22 23 24 25 26 27 28 29 30 31 32 33 34 35 36 37 38 39 40 41 42 43 44 45 46 47 48 49 50
000
ASUS43 KMKX 312011
RWRWI

WISCONSIN REGIONAL WEATHER ROUNDUP
NATIONAL WEATHER SERVICE MILWAUKEE/SULLIVAN WI
300 PM CDT THU JUL 31 2014

NOTE: "FAIR" INDICATES FEW OR NO CLOUDS BELOW 12,000 FEET WITH NO
SIGNIFICANT WEATHER AND/OR OBSTRUCTIONS TO VISIBILITY.

WIZ001-002-006>008-014>016-023>028-312100-
NORTHWEST WISCONSIN

CITY           SKY/WX    TMP DP  RH WIND       PRES   REMARKS
SUPERIOR ARPT  SUNNY     80  58  46 NW8       29.95F HX  81
ASHLAND        SUNNY     78  53  41 NW9       29.97S
HAYWARD        MOSUNNY   79  56  45 VRB7      29.99S HX  80
SIREN          PTSUNNY   76  60  59 CALM      29.99F
RICE LAKE      PTSUNNY   77  60  54 W7        30.01S
LADYSMITH      MOSUNNY   78  59  51 W13       30.00F
EAU CLAIRE     SUNNY     81  56  42 W14       29.99F HX  81
MENOMONIE      CLEAR     81  54  39 SW13      30.01S HX  80
NEW RICHMOND   MOSUNNY   80  54  40 W9        30.01F HX  80
OSCEOLA        MOSUNNY   81  60  49 W9        30.03S HX  81
$$

WIZ003>005-009-010-017-018-312100-
NORTH CENTRAL WISCONSIN

CITY           SKY/WX    TMP DP  RH WIND       PRES   REMARKS
WOODRUFF       PTSUNNY   80  50  35 NW6       29.99S
RHINELANDER    MOSUNNY   76  49  38 NW9       30.00S
EAGLE RIVER    MOSUNNY   75  44  32 NW10G20   29.99R
LAND O LAKES   SUNNY     75  45  35 W8        30.00S
PHILLIPS       MOSUNNY   75  54  48 NW8       29.99S
TOMAHAWK       MOSUNNY   75  54  46 CALM      29.99F
MEDFORD        MOSUNNY   72  61  67 NW7G18    30.00S
MERRILL        PTSUNNY   77  59  55 W7        29.98S
$$

WIZ029-030-035-036-043>047-312100-
CENTRAL WISCONSIN

CITY           SKY/WX    TMP DP  RH WIND       PRES   REMARKS
WAUSAU         LGT RAIN  71  59  65 NW3       29.97S
MOSINEE        PTSUNNY   79  57  47 W14       29.99  HX  80
MARSHFIELD     MOSUNNY   79  59  50 W14       30.00S HX  80
STEVENS POINT  PTSUNNY   77  57  50 W10G16    29.98F
WAUPACA        MOSUNNY   84  55  37 W13G20    29.97S HX  83
WAUTOMA        MOSUNNY   85  56  37 W12       29.98S HX  84
WISC RAPIDS    MOSUNNY   81  59  47 W14G21    30.00F HX  81
CAMP DOUGLAS   MOSUNNY   79  61  53 NW12      30.01S HX  80
$$

WIZ011>013-019>022-031-037>040-048>050-312100-
NORTHEAST WISCONSIN

CITY           SKY/WX    TMP DP  RH WIND       PRES   REMARKS
ANTIGO         SUNNY     76  51  41 NW8G16    29.99S
STURGEON BAY   MOSUNNY   77  54  44 W12       29.96F
GREEN BAY      MOSUNNY   80  62  54 W8        29.95F HX  81
MANITOWOC      PTSUNNY   73  62  68 SE7       29.97S
APPLETON       PTSUNNY   72  59  64 W10       29.98S
CLINTONVILLE   PTSUNNY   79  52  38 N9        29.96R
OSHKOSH        PTSUNNY   78  59  51 NW7       29.97S THUNDER
$$

WIZ032>034-041-042-053>061-312100-
SOUTHWEST WISCONSIN

CITY           SKY/WX    TMP DP  RH WIND       PRES   REMARKS
LA CROSSE      SUNNY     82  56  40 W14       30.01F HX  82
SPARTA         MOSUNNY   80  55  42 W8        30.03S HX  80
VIROQUA        MOCLDY    79  57  47 W9        30.05S
BOSCOBEL       SUNNY     84  56  38 W7        30.03F HX  83
PRAIRIE DU CHI SUNNY     81  51  35 W8        30.03S HX  80
PLATTEVILLE    FAIR      79  58  48 W10       30.05F HX  80
$$

WIZ056-057-062-063-064-067-068-312100-
SOUTH CENTRAL WISCONSIN

CITY           SKY/WX    TMP DP  RH WIND       PRES   REMARKS
BARABOO/DELLS  MOSUNNY   81  50  34 NW10      30.02S HX  80
LONE ROCK      SUNNY     83  61  47 NW10      30.02S HX  83
WATERTOWN      PTSUNNY   80  59  48 W13       30.00S HX  81
MADISON        MOSUNNY   82  57  42 W8        30.01F HX  82
MIDDLETON      MOCLDY    82  54  37 W14       30.02S HX  81
MONROE         MOSUNNY   79  54  41 W10G17    30.04S
JANESVILLE     MOSUNNY   82  52  34 NW15      30.01F HX  81
$$

WIZ051-052-058>065-066-070>072-312100-
SOUTHEAST WISCONSIN

CITY           SKY/WX    TMP DP  RH WIND       PRES   REMARKS
MILWAUKEE      MOSUNNY   82  55  39 W12       30.00S HX  81
WAUKESHA       MOSUNNY   79  54  41 W9G17     30.01F
MILWAUKEE/TIMM MOSUNNY   81  52  36 NW12G18   30.00F HX  80
RACINE         SUNNY     80  57  45 W13G21    30.02S HX  80
BURLINGTON     MOSUNNY   78  57  47 W12       30.01F
KENOSHA        MOSUNNY   82  61  48 W10       30.01F HX  83
FOND DU LAC    MOSUNNY   82  58  43 W9        29.97F HX  82
SHEBOYGAN      PTSUNNY   75  57  53 W9        29.99R
WEST BEND      MOSUNNY   79  54  41 W10       29.99F
JUNEAU         MOSUNNY   79  51  37 W13       30.01S
$$

LSZ147-162-312100-
LAKE SUPERIOR

STATION/POSITION TIME  TEMP    WIND        PRES    WAVE
                       AIR SEA DIR/SP/G            HT/PER
                 (UTC) (F)     (DEG/KT/KT) (MB)    (FT/S)
W MID LAKE BUOY  1950   51 43  210/  6/  6 1014.2F   0
PORT WING        1900   76     250/  7/ 10 1014.6F
SAXON HARBOR     1900             CALM     1014.9S
$$

LMZ867-665-643>646-312100-
LAKE MICHIGAN

STATION/POSITION TIME  TEMP    WIND        PRES    WAVE
                       AIR SEA DIR/SP/G            HT/PER
                 (UTC) (F)     (DEG/KT/KT) (MB)    (FT/S)
N MID LAKE BUOY  1950   59 55  210/ 14/ 16 1013.6F   1/ 3
NORTHPORT PIER   1900   70     140/  8/ 11 1013.9S
SISTER BAY       1840   73     270/  7/  7   N/A
KEWAUNEE LAKESHO 1900   59     170/  8/ 10 1014.4S
SHEBOYGAN LAKESH 2000   65     190/ 13/ 13 1015.5R
PORT WASHINGTON  1900   67     140/  6/ 12 1016.3
ATWATER BUOY     2000   75     290/  6     1016.5F
MILWAUKEE LAKESH 1900   78     260/ 12/ 14   N/A
S MID LAKE BUOY  1950   65 64  140/  6/  6 1016.5F   1
KENOSHA   LAKESH 2000   80     280/ 14/ 17 1015.2F
$$

TC  - TEMPERATURE IN CELSIUS
VSB - VISIBILITY IN STATUTE MILES
WCI - WIND CHILL INDEX
HX  - HEAT INDEX




USA.gov is the U.S. government's official web portal to all federal, state and local government web resources and services.